Flag for Tunisia Weather past 2 weeks in Houmt Souk (Djerba), Tunisia

Now
57 °F

Scattered clouds.


Feels Like: 55 °F
Forecast: 51 / 56 °F
Wind: 10 mph from North

Location: Djerba Mellita

Current Time: Dec 29, 2014 at 2:13:41 PM

Latest Report: Dec 29, 2014 at 1:30 PM


Visibility: N/A

Pressure: 29.98 "Hg

Humidity: 44%

Dew point: 36 °F

Location of Houmt Souk (Djerba)Location

Historic Weather in Houmt Souk (Djerba) — Graph

°F

Houmt Souk (Djerba) temperature yesterday

Maximum temperature yesterday: 64 °F (at 1:00 PM)
Minimum temperature yesterday: 55 °F (at 3:30 AM)
Average temperature yesterday: 59 °F

Past Weeks' High & Low Weather Summary

 TemperatureHumidityPressure
High68 °F (Dec 14, 3:30 PM)94% (Dec 23, 5:30 AM)30.48 "Hg (Dec 23, 5:30 AM)
Low50 °F (Dec 25, 10:00 PM)39% (Dec 27, 3:30 PM)29.77 "Hg (Dec 28, 4:30 PM)
Average60 °F65%30.19 "Hg
* Reported Dec 14 12:00 Noon — Dec 29 12:30 PM, Houmt Souk (Djerba), Weather by CustomWeather, © 2014

Note: Actual official high and low records may vary slightly from our data, if they occured in-between our weather recording intervals... More about our weather records

Advertising

Houmt Souk (Djerba) weather history for previous 24 hours

 ConditionsComfort  
Time TempWeatherWind HumidityBarometerVisibility
12:30 PM
Dec 29
57 °FScattered clouds.10 mph44%30.01 "HgN/A
12:00 PM57 °FScattered clouds.9 mph44%30.01 "HgN/A
11:30 AM57 °FScattered clouds.7 mph41%30.01 "Hg5 mi
11:00 AM57 °FScattered clouds.9 mph41%30.01 "Hg5 mi
10:30 AM57 °FLight rain. Scattered clouds.12 mph51%30.01 "Hg5 mi
10:00 AM57 °FLight rain. Scattered clouds.7 mph51%30.01 "Hg5 mi
9:30 AM57 °FScattered clouds.10 mph48%29.98 "Hg4 mi
9:00 AM57 °FScattered clouds.9 mph55%29.98 "Hg4 mi
8:00 AM55 °FScattered clouds.10 mph55%29.95 "Hg4 mi
7:30 AM55 °FScattered clouds.No wind63%29.95 "Hg4 mi
7:00 AM54 °FPassing clouds.2 mph72%29.92 "Hg4 mi
6:30 AM54 °FPassing clouds.2 mph72%29.92 "Hg4 mi
6:00 AM52 °FPassing clouds.2 mph77%29.92 "HgN/A
5:30 AM52 °FPassing clouds.No wind77%29.92 "Hg4 mi
5:00 AM52 °FPassing clouds.6 mph77%29.92 "HgN/A
4:30 AM50 °FPassing clouds.3 mph76%29.92 "HgN/A
4:00 AM50 °FPassing clouds.7 mph76%29.89 "Hg4 mi
2:30 AM55 °FPassing clouds.6 mph63%29.92 "Hg4 mi
2:00 AM55 °FPassing clouds.8 mph67%29.92 "HgN/A
1:30 AM55 °FPassing clouds.8 mph67%29.92 "HgN/A
1:00 AM55 °FPassing clouds.8 mph67%29.92 "Hg4 mi
12:30 AM55 °FPassing clouds.9 mph67%29.92 "Hg4 mi
12:00 AM55 °FPassing clouds.8 mph67%29.92 "HgN/A
11:30 PM
Dec 28
57 °FPassing clouds.12 mph63%29.92 "HgN/A
11:00 PM59 °FPassing clouds.20 mph51%29.92 "Hg3 mi
10:30 PM59 °FPassing clouds.18 mph55%29.92 "HgN/A
10:00 PM59 °FPassing clouds.20 mph51%29.89 "Hg3 mi
9:30 PM59 °FPassing clouds.21 mph48%29.89 "Hg3 mi
9:00 PM59 °FPassing clouds.24 mph48%29.86 "Hg3 mi
8:30 PM59 °FPassing clouds.28 mph45%29.86 "Hg3 mi
8:00 PM61 °FSandstorm.26 mph45%29.86 "Hg2 mi
7:30 PM61 °FSandstorm.29 mph42%29.86 "Hg2 mi
7:00 PM61 °FSandstorm.22 mph42%29.86 "Hg2 mi
6:30 PM61 °FSandstorm.24 mph42%29.83 "Hg2 mi
6:00 PM61 °FSandstorm.23 mph45%29.83 "Hg2 mi
5:30 PM61 °FSandstorm.26 mph45%29.80 "Hg2 mi
5:00 PM61 °FSandstorm.29 mph48%29.77 "Hg2 mi
4:30 PM63 °FSandstorm.30 mph42%29.77 "Hg2 mi
4:00 PM63 °FSandstorm.29 mph45%29.80 "Hg2 mi
3:30 PM63 °FSandstorm.26 mph45%29.80 "Hg2 mi
3:00 PM63 °FSandstorm.24 mph49%29.80 "Hg2 mi
2:30 PM64 °FPassing clouds.24 mph43%29.80 "Hg4 mi
2:00 PM64 °FPassing clouds.26 mph43%29.80 "Hg4 mi
Weather by CustomWeather, © 2014

See weather overviewHow to use our weather pages